La Nava - Corral De Ayllón Airport

Jump to: basic info | weather | comments

Related pages: nearby airports | nearby navaids | notams | map

Basic information (top)

Codes: LECA
Location: lon 41.410801, lat -3.448330, elev 3,280 ft / 1,000 m msl
Status: small_airport

Weather (top)

Current conditions for Torrejón Airport 55nm (102km) S (rec'd 2014/12/20 04:00Z):

LETO 200400Z 00000KT 9000 NSC M00/M01 Q1032 NOSIG

Airport forecast for Torrejón Airport 55nm (102km) S (rec'd 2014/12/19 00:32Z):

TAF LETO 192300Z 2000/2024 VRB04KT 2000 BR NSC TX14/2015Z TNM01/2008Z 
      BECMG 2000/2002 6000 NSW PROB30 
      TEMPO 2000/2005 0800 FG

Latest comments (top)

No comments yet for La Nava - Corral De Ayllón Airport

More... (top)

See also NOTAMs and nearby airports and navaids, or visit the La Nava - Corral De Ayllón Airport page at the main OurAirports website..